Temp
80 79 80 77 77 76 77 77 77 75 74 75 74 74 74 70 71 66 66 66 68 72 78 77 75 77 81 81 83 82 81 83 84 83 81 81 79 80 78 78 78 78 78 78 79 79 80 80 80 81 81 81 81 79 79 79 79 78 77 77 77 76 74 73 72 71 72 71 71 71 72 75 75 76
78 79 80 79 78 78 77 77 78 76 75 75 75 74 74 72 73 68 69 67 68 71 74 79 78 77 82 83 83 84 83 83 84 82 81 81 81 79 77 78 78 78 78 78 77 78 80 80 80 79 79 79 79 79 79 79 79 78 77 77 77 75 74 72 72 72 72 71 71 71 72 74 75 75
80 78 79 78 77 77 78 78 78 77 77 76 76 76 75 75 73 71 69 68 69 74 73 73 80 80 80 84 82 84 83 84 85 82 82 82 82 79 81 79 78 77 78 78 77 77 78 77 76 76 76 77 78 78 78 78 78 78 78 77 77 75 74 71 71 72 72 71 71 71 72 74 74 75
80 78 77 77 77 77 77 77 78 77 77 78 77 76 76 74 75 73 71 70 72 73 76 77 80 83 81 81 81 81 83 86 83 82 82 83 81 82 83 82 80 78 78 77 76 76 77 75 75 75 76 76 77 78 78 78 78 78 77 77 75 73 72 71 71 72 71 71 71 71 72 73 73 73
79 78 77 77 78 77 79 78 78 78 77 76 77 76 75 75 75 75 73 71 72 74 74 75 78 82 80 81 80 81 82 83 84 83 83 82 82 83 84 83 80 79 78 75 75 76 76 74 73 74 76 76 77 77 77 77 76 76 76 76 73 71 71 71 71 71 71 71 71 71 71 72 73 73
79 78 77 77 78 78 79 78 80 77 77 77 77 76 77 75 76 76 76 73 71 73 74 76 78 78 79 80 82 80 80 82 81 82 82 84 83 84 83 82 84 80 78 76 77 77 76 73 73 75 75 76 76 76 75 75 74 75 75 73 70 70 70 70 71 71 70 71 71 71 71 71 72 73
77 77 76 78 78 82 79 79 78 78 77 78 77 77 76 76 76 76 76 74 72 73 73 73 76 77 77 78 81 81 81 80 79 78 80 82 84 85 83 83 87 81 78 77 77 76 75 74 75 75 74 75 75 74 73 72 71 73 72 69 69 69 70 69 70 70 70 70 71 71 71 71 71 72
78 78 77 78 78 78 77 76 76 77 77 77 76 77 76 76 77 76 75 76 75 72 73 72 75 76 76 75 78 80 80 80 79 78 79 81 81 81 83 84 86 83 78 77 77 76 75 75 75 74 74 73 72 71 71 71 70 69 70 68 68 67 67 66 67 69 68 68 68 70 70 70 71 71
78 78 78 77 76 76 75 76 75 77 76 77 76 76 77 76 75 77 76 75 75 73 73 72 71 73 74 74 76 77 77 77 77 77 78 78 78 79 82 85 87 81 79 80 79 76 75 76 76 75 73 72 71 71 71 72 71 69 68 66 65 66 66 65 65 67 67 66 66 67 68 70 70 69
76 77 76 75 76 75 74 76 76 76 77 77 78 77 76 75 75 74 75 75 74 73 72 71 72 70 76 74 74 76 77 75 76 77 77 77 78 78 79 82 85 87 87 85 86 80 79 78 75 75 74 72 72 72 72 71 71 69 65 63 64 65 64 63 64 64 64 64 64 64 67 68 68 68
75 77 77 75 74 75 74 75 75 76 77 78 78 77 76 76 75 75 75 74 72 72 71 70 71 72 73 74 73 75 74 74 75 74 75 76 77 77 76 77 82 84 84 81 79 80 78 77 78 73 72 73 73 73 73 73 72 71 65 62 61 62 62 63 62 62 63 64 63 63 63 64 66 68
75 75 77 77 75 75 75 75 75 75 76 76 76 77 77 76 75 75 74 74 72 71 71 70 71 70 70 71 71 73 73 75 74 76 73 74 75 76 77 77 77 79 79 80 83 80 80 80 80 77 77 77 75 74 76 78 76 72 67 63 64 63 61 61 61 61 61 62 62 62 62 62 64 66
74 74 75 76 76 78 82 84 83 81 81 79 77 76 75 75 74 73 72 72 72 70 70 71 70 70 71 70 71 72 72 72 73 74 73 74 75 75 75 78 78 78 78 79 80 81 81 81 82 81 81 83 82 81 77 79 78 75 68 64 65 64 62 60 61 61 61 60 61 61 62 62 61 62
75 75 74 77 82 83 85 86 86 84 82 83 81 77 76 75 74 73 73 71 71 71 71 70 70 71 70 71 72 72 73 74 74 74 74 73 74 73 74 75 75 78 77 77 76 79 82 81 80 80 80 84 83 82 81 80 75 72 70 67 64 64 64 61 60 59 59 59 60 60 60 60 61 60
73 74 75 76 81 82 83 80 82 82 82 82 82 82 82 81 76 73 72 70 71 71 72 72 70 70 70 71 72 73 75 75 74 73 73 73 72 71 70 70 74 77 78 75 74 76 80 79 77 79 80 83 83 84 82 72 72 69 69 68 66 65 64 64 62 60 59 59 60 59 59 59 60 60
74 74 75 77 79 77 75 74 73 75 79 80 80 80 81 80 82 80 76 74 72 70 71 71 71 69 71 71 72 73 74 74 73 73 72 70 70 71 70 70 70 77 78 75 73 74 78 78 78 77 80 81 82 84 75 71 70 69 70 70 67 65 64 64 64 63 60 60 61 61 61 60 60 60
73 73 74 75 76 76 81 75 72 72 74 78 80 80 81 81 79 73 73 76 78 74 71 71 71 71 70 70 72 74 75 73 72 71 70 70 70 70 70 70 71 76 78 75 73 72 76 76 76 76 79 80 81 82 76 70 70 69 70 70 69 67 66 64 63 63 63 61 60 59 59 60 60 60
73 72 72 72 73 71 70 69 69 71 72 72 74 74 74 74 79 80 77 74 74 75 75 72 71 71 72 73 73 76 74 73 72 71 71 70 70 71 71 73 74 76 79 74 72 70 74 76 75 75 78 80 80 80 75 69 70 70 70 69 68 68 66 65 63 63 62 62 61 59 58 57 58 58
73 72 73 70 70 69 68 69 70 70 70 71 74 74 75 75 76 75 76 76 73 73 74 73 73 74 74 73 74 74 73 72 73 73 72 72 72 73 73 73 73 75 76 75 73 71 73 74 73 74 76 79 78 78 74 72 71 71 69 69 68 67 67 66 65 63 62 62 61 60 58 57 56 57
71 71 71 71 70 67 67 70 67 69 70 71 73 72 73 74 75 74 77 68 74 76 74 75 75 75 76 73 71 72 71 70 71 72 73 72 70 70 70 71 73 71 76 77 74 71 72 73 73 74 76 76 76 77 78 74 72 70 70 71 70 67 66 67 66 65 63 62 61 60 59 56 55 55
73 72 72 71 68 67 68 67 60 63 75 71 71 70 71 72 73 70 75 74 70 69 68 67 67 66 66 65 65 64 66 68 70 70 68 69 71 71 68 69 69 71 73 75 76 72 70 73 71 72 73 74 74 75 76 78 73 69 71 70 69 67 66 66 67 66 65 63 62 61 60 57 55 56
71 74 78 73 68 67 67 61 60 61 71 68 69 69 70 70 70 69 72 74 76 72 72 71 70 69 68 69 69 70 68 66 71 70 71 72 71 70 69 67 67 70 70 72 75 71 68 72 70 70 72 71 70 74 75 76 75 70 71 69 68 66 66 66 66 66 66 66 64 62 59 57 57 59
69 71 75 75 71 69 64 57 59 61 69 67 67 68 68 69 68 70 69 70 71 71 72 72 73 73 75 74 73 74 74 73 74 71 73 72 70 68 68 68 66 65 67 73 73 69 68 69 72 69 68 68 69 70 75 75 75 74 74 74 75 67 67 66 66 64 65 64 64 63 60 57 57 61
67 67 67 67 61 60 59 58 57 58 59 66 66 66 68 68 67 67 67 70 70 68 69 69 70 70 71 72 72 73 73 76 75 72 73 73 71 70 68 69 67 66 67 71 72 68 67 67 69 71 69 67 66 70 73 73 74 73 74 73 73 70 70 69 68 68 65 64 65 64 61 58 56 63
68 67 68 69 65 60 59 58 56 55 57 62 65 64 65 68 67 65 65 67 73 67 68 68 69 70 70 71 71 72 72 74 74 73 73 73 72 72 70 67 68 67 68 73 71 69 67 68 68 69 68 67 69 68 69 70 72 71 74 72 72 74 73 73 72 74 68 67 66 62 60 57 56 61
69 68 67 69 67 59 58 56 54 53 54 58 63 64 61 61 61 65 67 66 67 67 67 67 66 67 67 68 69 71 71 73 73 72 72 72 72 72 72 70 68 67 68 73 71 70 67 68 69 67 68 66 66 66 65 67 70 71 71 72 72 72 72 72 73 73 73 73 74 67 62 57 59 55
66 67 67 68 67 58 53 51 52 53 53 59 61 58 57 58 59 65 65 66 66 64 65 65 65 66 66 68 67 69 70 71 70 71 71 72 72 72 73 74 72 70 70 71 72 70 68 67 69 66 65 65 63 64 65 64 67 70 69 70 71 71 72 71 71 71 72 72 72 66 65 64 62 59
63 63 64 64 55 51 49 50 52 54 57 61 56 55 57 59 62 63 63 63 63 65 64 64 64 65 66 67 66 68 70 69 69 70 72 70 71 69 70 69 72 72 72 72 72 70 69 68 68 67 64 64 63 63 63 64 66 64 66 68 70 70 71 72 71 72 71 71 70 70 69 70 70 69
62 59 54 52 52 54 53 53 53 56 58 55 54 54 55 63 62 61 62 63 64 63 64 64 66 66 69 68 69 70 67 68 69 68 70 70 69 68 67 68 68 69 74 74 71 70 69 68 66 66 66 65 63 64 62 61 63 64 65 66 66 68 69 70 70 69 70 70 69 68 67 68 69 68
58 56 55 56 57 58 60 63 64 64 65 64 64 61 63 62 62 63 62 64 64 64 65 66 67 68 68 68 68 68 68 68 67 67 68 67 67 66 66 67 67 68 70 70 70 69 69 68 66 66 65 65 65 63 63 61 62 62 64 64 65 67 68 69 69 69 68 67 68 68 67 67 67 67
59 61 62 61 57 57 58 59 60 61 64 64 64 64 65 64 63 63 63 63 64 65 66 66 65 67 69 68 70 68 67 67 67 67 68 65 65 66 64 64 65 66 67 68 69 69 68 67 67 65 64 63 64 64 63 62 61 61 62 63 64 62 65 67 68 67 66 66 66 66 67 68 69 69
59 61 61 61 65 66 67 67 68 67 67 66 66 67 67 66 67 70 71 71 65 66 65 66 66 66 66 66 66 66 66 64 67 66 67 66 65 65 63 62 62 62 64 66 66 68 70 67 67 66 65 63 62 63 63 61 61 62 63 64 63 63 66 66 66 67 67 65 64 64 64 65 65 67
58 60 61 63 64 65 64 65 66 67 68 68 68 68 68 68 67 66 66 65 65 65 65 65 64 64 64 63 64 64 65 65 65 65 65 64 65 63 62 61 61 61 61 62 64 65 65 65 68 67 65 66 66 63 62 61 62 63 63 64 63 63 65 66 66 66 66 65 64 63 63 63 65 66
55 56 57 60 61 63 63 64 65 66 66 66 66 65 66 67 67 66 66 65 64 65 64 63 63 63 63 63 63 64 63 64 65 63 63 63 64 63 61 60 60 61 61 60 62 63 63 64 63 64 64 65 66 64 64 63 62 63 63 62 60 62 64 65 65 65 64 63 62 62 63 64 64 64
54 55 57 59 61 63 63 64 64 64 64 64 64 64 65 65 65 64 64 63 63 63 63 63 63 63 63 63 63 63 63 64 63 63 63 63 62 61 60 59 59 60 60 60 61 61 62 62 62 61 60 60 59 58 63 66 62 62 62 60 61 62 62 64 64 64 62 62 62 61 61 63 63 64
55 56 57 59 61 62 63 64 64 64 64 63 63 63 63 63 63 63 61 61 62 62 62 62 62 62 62 62 62 62 62 62 61 61 60 60 60 59 59 59 59 59 59 59 60 60 61 61 60 59 57 57 56 54 55 64 65 62 61 60 62 61 62 62 62 62 62 62 61 60 59 59 61 64
55 56 58 60 61 61 61 62 62 62 63 62 62 62 62 61 62 62 61 61 63 62 62 61 61 61 61 61 61 61 61 60 59 59 59 58 59 58 58 59 60 59 59 59 59 60 60 59 59 58 56 55 54 53 55 57 61 61 60 60 59 60 60 60 60 60 60 60 60 60 60 60 60 63
55 58 60 60 59 60 61 60 61 61 61 61 61 61 61 61 61 61 62 61 60 59 59 58 58 58 58 58 58 58 58 58 58 57 57 57 56 56 56 56 56 57 57 58 58 59 58 58 58 57 55 53 52 52 53 57 58 58 60 59 59 60 61 60 59 58 59 61 60 61 61 60 61 63
57 58 58 58 59 59 59 59 60 59 59 59 59 58 59 59 59 58 58 58 57 57 56 56 56 56 55 56 56 56 55 54 54 54 54 55 55 54 54 55 54 55 55 55 56 56 57 56 56 56 55 53 52 53 54 54 55 59 59 56 58 60 60 59 58 59 59 59 61 61 61 62 64 64
59 59 58 58 58 58 58 58 58 58 57 57 57 57 57 57 56 56 56 55 55 55 54 55 55 54 54 55 54 54 54 53 53 53 53 53 53 53 53 53 53 52 52 53 53 53 54 54 55 55 56 55 56 58 58 58 58 58 58 58 55 59 60 59 58 58 58 59 59 58 58 60 59 61
58 57 57 58 57 57 57 57 57 56 56 56 57 58 56 55 55 54 54 54 54 53 53 52 52 52 52 52 53 53 51 52 52 53 53 52 53 53 54 54 51 51 50 50 51 51 52 53 57 59 59 57 58 58 55 53 52 54 55 57 57 57 57 59 60 58 58 59 58 57 56 56 57 58
56 56 56 57 56 57 57 56 56 56 56 56 56 55 54 54 54 55 54 54 52 52 51 51 51 51 51 51 51 52 51 50 50 50 51 50 50 50 52 51 49 50 49 49 49 50 53 55 56 56 55 55 55 52 50 51 51 53 54 57 57 58 58 58 58 59 59 58 57 55 56 57 58 56
55 54 55 55 56 56 56 56 56 55 55 55 54 54 53 52 51 51 51 50 50 51 50 50 49 49 49 50 50 50 49 49 49 49 49 49 49 48 48 48 49 49 49 50 51 52 52 52 52 52 52 52 52 52 49 51 52 53 53 54 55 57 58 58 58 58 58 59 59 58 58 57 54 52
52 53 53 53 53 53 53 54 54 54 54 53 53 53 52 50 49 49 50 49 49 48 49 48 48 48 48 49 49 49 49 49 49 49 49 49 49 49 49 48 49 49 49 49 49 49 50 50 51 51 50 49 51 50 50 51 51 53 53 53 55 55 55 57 58 57 57 58 58 57 57 58 58 58
51 51 51 51 52 52 52 52 52 52 52 52 51 51 51 50 50 49 48 48 48 48 48 47 47 47 48 49 48 47 49 51 49 48 49 48 48 49 49 48 48 48 48 48 47 47 48 48 49 50 48 50 51 50 52 53 52 52 52 52 53 54 54 56 55 55 55 56 58 59 58 58 59 59
MSLP
1019.99 1019.95 1020.03 1020.15 1020.07 1019.99 1019.95 1020.03 1020.11 1020.23 1020.27 1020.39 1020.55 1020.67 1021.23 1021.59 1022.63 1023.11 1022.91 1022.23 1021.83 1020.43 1019.75 1020.39 1019.03 1018.11 1017.99 1017.91 1017.47 1017.43 1017.19 1016.87 1016.67 1016.67 1016.55 1016.39 1016.19 1015.95 1015.79 1015.63 1015.39 1015.23 1015.07 1014.95 1014.79 1014.55 1014.35 1014.23 1014.11 1014.03 1013.95 1013.87 1013.99 1014.07 1014.11 1014.11 1014.11 1014.19 1014.31 1014.35 1014.39 1014.51 1014.67 1014.79 1014.95 1015.03 1015.15 1015.27 1015.31 1015.31 1015.27 1015.23 1015.31 1015.39
1019.87 1019.91 1019.91 1019.99 1020.11 1019.79 1019.87 1019.83 1019.75 1019.99 1020.11 1020.23 1020.43 1020.59 1020.71 1020.91 1021.91 1022.31 1022.91 1022.59 1021.27 1020.91 1019.83 1019.55 1019.71 1018.55 1018.27 1017.83 1017.63 1017.31 1017.19 1016.79 1016.67 1016.63 1016.51 1016.35 1016.15 1015.95 1015.75 1015.51 1015.31 1015.15 1014.99 1014.87 1014.79 1014.55 1014.31 1014.19 1014.11 1014.03 1013.95 1013.87 1013.87 1013.99 1014.03 1013.99 1013.99 1014.07 1014.15 1014.23 1014.31 1014.39 1014.55 1014.75 1014.87 1014.99 1015.07 1015.19 1015.31 1015.35 1015.35 1015.31 1015.31 1015.35
1019.91 1020.03 1020.07 1019.83 1019.87 1019.75 1019.87 1019.83 1019.87 1019.87 1019.95 1020.07 1020.15 1020.27 1020.39 1020.71 1021.03 1021.51 1021.95 1022.87 1021.15 1020.47 1020.75 1019.79 1018.95 1018.99 1018.39 1017.91 1017.75 1017.43 1017.11 1016.79 1016.63 1016.63 1016.47 1016.27 1016.07 1015.95 1015.71 1015.47 1015.31 1015.15 1014.99 1014.83 1014.79 1014.55 1014.35 1014.23 1014.15 1014.03 1013.95 1013.87 1013.71 1013.83 1013.91 1013.91 1013.87 1013.91 1013.99 1014.11 1014.19 1014.31 1014.43 1014.63 1014.79 1014.91 1015.03 1015.11 1015.23 1015.31 1015.39 1015.35 1015.39 1015.39
1019.91 1020.07 1020.15 1019.99 1019.99 1019.79 1019.79 1019.83 1019.75 1019.71 1019.67 1019.71 1019.95 1020.03 1020.23 1020.47 1020.63 1020.91 1021.51 1022.11 1021.91 1020.31 1020.27 1019.91 1019.23 1018.59 1018.51 1017.95 1017.99 1017.63 1017.23 1016.67 1016.59 1016.63 1016.51 1016.27 1016.11 1015.99 1015.83 1015.55 1015.39 1015.23 1015.03 1014.95 1014.83 1014.55 1014.39 1014.31 1014.19 1014.07 1013.95 1013.83 1013.71 1013.67 1013.71 1013.75 1013.75 1013.75 1013.79 1013.91 1014.03 1014.19 1014.35 1014.51 1014.67 1014.83 1014.95 1015.03 1015.15 1015.23 1015.35 1015.39 1015.47 1015.51
1019.95 1020.03 1020.11 1019.99 1019.79 1019.63 1019.83 1019.71 1019.67 1019.63 1019.67 1019.71 1019.83 1019.87 1019.99 1020.23 1020.35 1020.71 1021.27 1021.83 1021.63 1020.51 1019.59 1019.63 1019.39 1018.59 1018.39 1018.35 1017.75 1017.91 1017.63 1017.31 1016.91 1016.63 1016.47 1016.35 1016.35 1016.19 1016.03 1015.79 1015.47 1015.23 1015.07 1015.03 1014.79 1014.55 1014.43 1014.35 1014.23 1014.07 1013.95 1013.83 1013.67 1013.55 1013.55 1013.55 1013.59 1013.59 1013.67 1013.75 1013.91 1014.07 1014.23 1014.43 1014.59 1014.71 1014.83 1014.95 1015.03 1015.15 1015.27 1015.35 1015.43 1015.55
1019.91 1019.95 1020.07 1019.95 1019.75 1019.51 1019.67 1019.63 1019.75 1019.67 1019.71 1019.71 1019.83 1019.87 1020.03 1020.19 1020.23 1020.15 1020.87 1021.23 1021.47 1021.39 1020.03 1019.79 1018.99 1018.87 1018.23 1018.83 1017.67 1018.11 1018.07 1017.75 1017.31 1017.23 1016.91 1016.55 1016.35 1016.35 1016.15 1015.99 1015.63 1015.27 1015.15 1014.99 1014.75 1014.55 1014.43 1014.31 1014.19 1014.03 1013.91 1013.79 1013.59 1013.47 1013.43 1013.39 1013.39 1013.43 1013.55 1013.63 1013.79 1013.95 1014.11 1014.27 1014.43 1014.59 1014.75 1014.83 1014.95 1015.03 1015.15 1015.27 1015.35 1015.43
1019.87 1019.99 1019.99 1019.87 1019.67 1019.51 1019.71 1019.71 1019.67 1019.59 1019.63 1019.51 1019.75 1019.95 1019.87 1020.03 1019.91 1019.91 1020.07 1020.71 1021.27 1021.15 1020.71 1019.71 1019.71 1019.23 1018.75 1018.79 1018.43 1017.91 1017.79 1017.71 1017.59 1017.59 1017.27 1017.07 1016.67 1016.39 1016.23 1016.11 1015.71 1015.39 1015.19 1014.99 1014.79 1014.63 1014.47 1014.35 1014.15 1013.99 1013.87 1013.71 1013.51 1013.47 1013.39 1013.27 1013.23 1013.31 1013.43 1013.55 1013.67 1013.83 1013.99 1014.15 1014.31 1014.47 1014.63 1014.75 1014.83 1014.95 1015.03 1015.15 1015.23 1015.35
1019.87 1019.95 1019.99 1019.83 1019.67 1019.79 1020.07 1020.03 1019.95 1019.79 1019.63 1019.63 1019.67 1019.75 1019.71 1019.67 1019.67 1019.63 1019.87 1020.03 1020.51 1020.63 1020.95 1020.03 1019.87 1019.27 1019.19 1018.71 1018.11 1017.95 1017.75 1017.83 1017.71 1017.59 1017.31 1016.87 1016.87 1016.71 1016.35 1016.15 1015.87 1015.47 1015.23 1014.99 1014.83 1014.67 1014.51 1014.35 1014.15 1013.99 1013.79 1013.59 1013.43 1013.35 1013.31 1013.15 1013.07 1013.15 1013.27 1013.43 1013.55 1013.67 1013.83 1013.99 1014.15 1014.31 1014.47 1014.63 1014.75 1014.83 1014.91 1015.03 1015.11 1015.23
1019.71 1019.83 1019.95 1019.91 1019.87 1019.87 1020.23 1020.31 1020.35 1020.43 1020.43 1019.91 1019.71 1019.67 1019.63 1019.67 1019.59 1019.63 1019.75 1019.91 1020.07 1020.51 1020.75 1020.39 1019.51 1019.11 1018.99 1018.59 1018.35 1018.11 1018.47 1018.11 1017.79 1017.51 1017.51 1017.39 1017.19 1016.87 1016.47 1016.15 1015.79 1015.55 1015.23 1015.03 1014.87 1014.71 1014.55 1014.35 1014.15 1013.99 1013.79 1013.59 1013.39 1013.19 1013.11 1013.03 1012.91 1012.91 1013.03 1013.23 1013.43 1013.55 1013.67 1013.83 1013.99 1014.15 1014.35 1014.51 1014.67 1014.75 1014.83 1014.91 1014.99 1015.11
1019.83 1019.91 1019.95 1019.87 1019.67 1019.91 1020.03 1020.15 1020.15 1020.07 1020.11 1019.95 1019.67 1019.75 1019.71 1019.63 1019.59 1019.67 1019.67 1019.71 1019.95 1020.19 1020.27 1020.27 1020.07 1019.35 1019.39 1019.19 1018.83 1018.31 1018.31 1018.55 1018.51 1018.15 1017.71 1017.35 1017.15 1017.11 1016.95 1016.47 1016.03 1015.67 1015.47 1015.35 1014.99 1014.75 1014.55 1014.31 1014.15 1013.95 1013.75 1013.59 1013.39 1013.19 1012.99 1012.91 1012.79 1012.71 1012.83 1013.07 1013.27 1013.43 1013.55 1013.71 1013.87 1014.03 1014.19 1014.35 1014.51 1014.67 1014.75 1014.83 1014.91 1015.03
1019.75 1019.79 1019.67 1019.59 1019.59 1019.63 1019.75 1019.95 1019.95 1019.91 1019.83 1019.71 1019.63 1019.47 1019.55 1019.47 1019.51 1019.63 1019.71 1019.83 1020.03 1020.11 1020.19 1019.99 1019.83 1019.91 1019.35 1019.35 1019.51 1018.51 1018.23 1018.31 1018.47 1018.75 1018.47 1018.19 1017.43 1017.31 1017.35 1017.19 1016.27 1015.87 1015.67 1015.27 1015.03 1014.87 1014.71 1014.43 1014.23 1014.03 1013.83 1013.59 1013.39 1013.15 1012.95 1012.79 1012.75 1012.71 1012.79 1012.95 1013.15 1013.39 1013.51 1013.63 1013.75 1013.91 1014.07 1014.19 1014.35 1014.51 1014.67 1014.75 1014.83 1014.91
1019.59 1019.59 1019.43 1019.31 1019.31 1019.27 1019.19 1019.31 1019.39 1019.51 1019.67 1019.63 1019.79 1019.47 1019.35 1019.31 1019.39 1019.59 1019.67 1019.75 1019.87 1020.03 1020.19 1020.35 1020.31 1020.03 1019.95 1019.51 1019.15 1018.71 1018.51 1018.67 1018.59 1018.39 1018.75 1019.03 1018.35 1017.75 1017.27 1017.11 1017.07 1016.31 1016.07 1016.03 1015.35 1014.79 1014.51 1014.27 1014.03 1013.91 1013.83 1013.63 1013.43 1013.27 1013.07 1012.91 1012.83 1012.79 1012.91 1012.99 1013.07 1013.27 1013.47 1013.59 1013.67 1013.79 1013.91 1014.07 1014.23 1014.35 1014.47 1014.63 1014.75 1014.83
1019.31 1019.27 1019.19 1019.11 1019.03 1018.83 1018.71 1018.63 1018.63 1018.75 1018.87 1019.23 1019.55 1019.23 1019.23 1019.23 1019.31 1019.43 1019.59 1019.75 1019.91 1020.07 1020.27 1020.31 1020.15 1020.23 1020.11 1019.83 1019.71 1019.59 1019.43 1019.51 1019.47 1018.71 1018.51 1018.75 1018.35 1018.03 1017.75 1017.03 1016.51 1016.43 1016.59 1016.31 1015.91 1015.47 1015.15 1015.07 1014.75 1014.51 1014.35 1013.99 1013.67 1013.47 1013.35 1013.23 1013.07 1012.95 1012.91 1012.95 1013.07 1013.15 1013.31 1013.47 1013.55 1013.67 1013.79 1013.95 1014.07 1014.23 1014.35 1014.43 1014.59 1014.71
1019.43 1019.39 1019.23 1019.03 1018.79 1018.71 1018.59 1018.55 1018.47 1018.55 1018.59 1018.59 1018.67 1018.83 1018.95 1019.15 1019.23 1019.35 1019.51 1019.71 1019.87 1020.07 1020.31 1020.35 1020.35 1020.51 1020.39 1020.07 1019.83 1019.79 1019.35 1018.91 1018.63 1018.75 1018.71 1019.03 1018.55 1018.27 1018.23 1017.55 1016.91 1016.39 1016.51 1016.75 1016.71 1015.95 1015.15 1015.31 1015.15 1014.83 1014.83 1014.19 1013.87 1013.83 1013.67 1013.63 1013.51 1013.19 1012.91 1012.91 1013.03 1013.11 1013.23 1013.35 1013.47 1013.55 1013.63 1013.79 1013.91 1014.03 1014.19 1014.31 1014.39 1014.51
1019.27 1019.19 1019.03 1018.91 1018.75 1018.63 1018.63 1018.63 1018.71 1018.71 1018.63 1018.47 1018.43 1018.39 1018.47 1018.51 1018.71 1019.19 1019.47 1019.59 1019.63 1019.91 1020.11 1019.99 1020.15 1020.39 1020.39 1019.95 1019.59 1019.55 1019.23 1018.83 1018.87 1018.87 1018.79 1018.91 1018.83 1019.03 1019.19 1019.27 1017.59 1016.27 1016.59 1016.99 1017.15 1016.59 1015.47 1015.39 1015.75 1015.31 1014.99 1014.55 1014.19 1013.91 1013.83 1013.67 1013.43 1013.27 1012.99 1012.95 1013.03 1013.15 1013.23 1013.31 1013.35 1013.43 1013.51 1013.63 1013.75 1013.83 1013.95 1014.07 1014.19 1014.31
1018.99 1019.03 1018.99 1018.83 1018.67 1018.71 1018.75 1018.87 1018.87 1018.75 1018.55 1018.43 1018.31 1018.27 1018.27 1018.27 1018.27 1018.31 1018.75 1019.23 1019.59 1019.71 1019.87 1019.99 1019.95 1020.07 1020.11 1019.83 1019.47 1019.27 1019.07 1018.95 1018.79 1018.71 1018.75 1018.87 1019.03 1019.11 1019.23 1019.03 1019.03 1017.11 1016.35 1017.19 1017.35 1017.07 1015.83 1015.55 1015.75 1015.71 1015.15 1014.67 1014.35 1014.07 1013.91 1013.75 1013.51 1013.31 1013.11 1012.99 1013.03 1013.11 1013.19 1013.23 1013.31 1013.35 1013.43 1013.51 1013.59 1013.67 1013.75 1013.83 1013.95 1014.07
1018.75 1018.79 1018.83 1018.87 1018.83 1018.83 1018.71 1018.79 1018.87 1018.83 1018.71 1018.47 1018.31 1018.31 1018.31 1018.31 1018.27 1018.35 1018.35 1018.31 1018.59 1018.87 1019.39 1019.67 1019.75 1019.67 1019.55 1019.63 1019.27 1018.79 1018.75 1018.55 1019.03 1018.79 1018.87 1018.79 1018.75 1018.79 1018.99 1018.75 1018.31 1017.23 1016.39 1016.99 1017.39 1017.43 1016.43 1015.99 1016.15 1016.11 1015.23 1014.79 1014.43 1014.19 1013.87 1013.79 1013.67 1013.51 1013.35 1013.15 1013.07 1013.07 1013.11 1013.19 1013.31 1013.43 1013.47 1013.47 1013.51 1013.55 1013.59 1013.63 1013.71 1013.79
1018.67 1018.63 1018.75 1018.87 1019.03 1018.99 1018.95 1018.91 1018.87 1018.83 1018.79 1018.71 1018.59 1018.51 1018.47 1018.43 1018.31 1018.23 1018.19 1018.23 1018.35 1018.47 1018.79 1019.15 1019.47 1018.99 1018.91 1019.23 1018.83 1018.39 1018.35 1018.75 1018.95 1018.87 1018.79 1018.51 1018.71 1018.71 1018.63 1018.07 1017.83 1016.99 1016.43 1017.27 1017.47 1017.63 1016.91 1016.27 1016.35 1016.39 1015.51 1014.79 1014.63 1014.35 1014.03 1013.91 1013.75 1013.55 1013.39 1013.31 1013.19 1013.11 1013.11 1013.15 1013.27 1013.35 1013.35 1013.39 1013.39 1013.43 1013.47 1013.47 1013.51 1013.51
1018.67 1018.67 1018.67 1018.75 1018.87 1019.03 1019.03 1018.95 1018.91 1018.87 1018.83 1018.79 1018.75 1018.67 1018.67 1018.63 1018.55 1018.47 1018.39 1018.31 1018.35 1018.47 1018.55 1018.71 1018.79 1018.67 1018.55 1018.59 1018.43 1018.23 1018.07 1018.23 1018.15 1018.15 1018.27 1018.19 1018.27 1018.11 1017.71 1017.63 1017.35 1017.11 1016.43 1016.67 1017.19 1018.39 1017.23 1016.39 1016.75 1016.51 1015.87 1015.15 1014.87 1014.51 1014.15 1013.87 1013.83 1013.75 1013.71 1013.59 1013.47 1013.27 1013.15 1013.11 1013.11 1013.15 1013.19 1013.19 1013.19 1013.15 1013.19 1013.27 1013.35 1013.35
1018.79 1018.71 1018.71 1018.79 1018.99 1019.07 1019.07 1019.03 1019.03 1018.91 1018.83 1018.83 1018.87 1018.91 1018.87 1018.79 1018.71 1018.63 1018.43 1018.31 1018.15 1018.19 1018.23 1018.31 1018.39 1018.39 1018.27 1018.23 1018.23 1018.07 1017.95 1017.83 1017.71 1017.75 1017.79 1017.75 1017.95 1018.27 1018.39 1018.59 1017.95 1017.91 1016.79 1016.75 1017.39 1017.99 1017.59 1016.67 1016.99 1016.71 1015.83 1015.51 1015.39 1014.83 1014.59 1014.11 1013.99 1014.03 1013.87 1013.67 1013.55 1013.51 1013.35 1013.19 1013.03 1012.91 1012.87 1012.91 1012.87 1012.87 1012.95 1013.07 1013.15 1013.23
1018.67 1018.67 1018.75 1018.87 1019.07 1019.15 1019.11 1019.07 1019.03 1018.91 1018.75 1018.87 1019.03 1019.07 1019.07 1019.03 1018.99 1018.91 1018.59 1018.35 1018.31 1018.31 1018.27 1018.27 1018.27 1018.23 1018.15 1018.03 1017.91 1017.75 1017.59 1017.59 1017.47 1017.71 1017.91 1018.23 1018.11 1018.47 1018.91 1018.79 1018.55 1018.15 1017.55 1017.23 1017.19 1017.55 1017.75 1016.95 1016.91 1016.87 1016.23 1015.87 1015.67 1015.35 1015.03 1014.55 1014.23 1014.19 1013.99 1013.91 1013.79 1013.63 1013.47 1013.27 1013.07 1012.91 1012.75 1012.63 1012.55 1012.51 1012.55 1012.71 1012.87 1012.99
1018.51 1018.51 1018.59 1018.87 1019.07 1019.15 1019.15 1019.15 1019.07 1018.95 1018.83 1018.99 1019.07 1019.15 1019.19 1019.23 1019.23 1019.11 1018.87 1018.67 1018.51 1018.31 1018.23 1018.23 1018.19 1018.07 1017.99 1017.87 1017.75 1017.59 1017.47 1017.39 1017.35 1017.55 1018.31 1018.11 1018.03 1018.59 1018.83 1019.27 1018.83 1018.15 1017.75 1017.59 1017.07 1017.59 1017.75 1017.03 1016.71 1016.99 1016.47 1015.95 1015.55 1015.43 1015.19 1014.91 1014.59 1014.43 1014.31 1014.19 1014.03 1013.83 1013.59 1013.39 1013.19 1012.99 1012.79 1012.59 1012.39 1012.27 1012.23 1012.35 1012.59 1012.83
1018.55 1018.67 1018.79 1018.91 1018.99 1019.07 1019.23 1019.27 1019.15 1019.07 1018.95 1019.07 1019.15 1019.19 1019.23 1019.35 1019.35 1019.23 1019.11 1019.03 1018.91 1018.75 1018.51 1018.31 1018.23 1018.03 1017.87 1017.87 1017.83 1017.71 1017.51 1017.43 1017.31 1017.31 1017.55 1017.67 1018.07 1018.67 1018.83 1018.83 1018.75 1018.83 1018.39 1017.47 1017.03 1017.95 1017.59 1017.35 1016.87 1016.99 1017.15 1017.35 1016.23 1015.51 1015.39 1015.15 1014.87 1014.75 1014.59 1014.43 1014.23 1014.03 1013.79 1013.55 1013.35 1013.15 1012.99 1012.83 1012.55 1012.31 1012.19 1012.31 1012.51 1012.71
1018.95 1019.07 1019.23 1019.27 1019.31 1019.27 1019.27 1019.27 1019.27 1019.23 1019.23 1019.19 1019.23 1019.23 1019.23 1019.31 1019.23 1019.07 1019.07 1018.99 1018.95 1019.03 1019.03 1018.87 1018.63 1018.51 1018.31 1018.11 1017.91 1017.79 1017.67 1017.51 1017.39 1017.39 1017.43 1017.51 1017.79 1018.27 1018.59 1018.71 1018.83 1019.19 1018.83 1017.47 1017.07 1017.87 1017.47 1017.23 1017.43 1016.71 1017.15 1017.79 1017.67 1016.27 1015.59 1015.47 1015.07 1014.91 1014.75 1014.67 1014.55 1014.23 1013.91 1013.71 1013.47 1013.23 1013.15 1012.99 1012.79 1012.59 1012.51 1012.59 1012.79 1012.87
1018.91 1019.11 1019.27 1019.31 1019.31 1019.35 1019.23 1019.19 1019.19 1019.19 1019.19 1019.23 1019.23 1019.27 1019.31 1019.15 1019.07 1019.07 1019.07 1019.03 1018.95 1018.99 1018.95 1018.83 1018.71 1018.55 1018.51 1018.27 1018.11 1018.03 1017.91 1017.79 1017.63 1017.51 1017.43 1017.39 1017.47 1017.83 1018.31 1018.55 1018.63 1018.67 1018.19 1017.35 1017.11 1017.47 1017.91 1017.47 1017.55 1017.15 1017.11 1017.11 1017.11 1016.95 1016.23 1015.83 1015.31 1015.23 1014.99 1014.95 1014.95 1014.47 1014.23 1014.03 1013.79 1013.59 1013.31 1013.11 1012.99 1012.91 1012.91 1012.95 1013.03 1012.99
1018.63 1018.95 1019.19 1019.27 1019.31 1019.31 1019.23 1019.19 1019.19 1019.23 1019.27 1019.27 1019.27 1019.15 1019.07 1019.07 1019.11 1019.03 1018.99 1018.95 1018.91 1018.91 1018.87 1018.83 1018.71 1018.63 1018.75 1018.47 1018.31 1018.19 1018.07 1017.95 1017.75 1017.67 1017.55 1017.51 1017.47 1017.43 1017.55 1017.87 1018.31 1018.59 1018.35 1017.19 1017.11 1017.35 1017.67 1017.63 1017.59 1017.75 1017.55 1017.63 1017.47 1017.15 1017.03 1016.47 1015.79 1015.47 1015.19 1015.03 1014.95 1014.79 1014.59 1014.51 1014.23 1014.03 1013.79 1013.59 1013.35 1013.23 1013.23 1013.11 1013.07 1013.11
1018.87 1018.83 1019.07 1019.11 1019.07 1019.07 1019.03 1019.03 1019.03 1018.99 1018.99 1019.07 1018.95 1018.87 1018.99 1019.03 1019.07 1019.07 1019.03 1018.99 1018.95 1018.83 1018.79 1018.79 1018.71 1018.63 1018.71 1018.55 1018.43 1018.31 1018.19 1017.95 1017.75 1017.67 1017.59 1017.43 1017.35 1017.35 1017.27 1017.23 1017.35 1017.67 1017.55 1017.23 1017.07 1017.23 1017.43 1017.75 1017.47 1017.83 1017.99 1017.83 1017.83 1017.43 1017.27 1017.27 1016.55 1015.71 1015.63 1015.39 1015.11 1014.87 1014.67 1014.63 1014.63 1014.51 1014.19 1013.99 1013.71 1013.35 1013.11 1012.99 1012.95 1012.95
1019.23 1019.23 1019.23 1019.23 1019.15 1018.99 1018.87 1018.87 1018.91 1018.87 1018.87 1018.79 1018.63 1018.71 1018.71 1018.79 1018.87 1018.91 1018.91 1018.91 1018.87 1018.79 1018.75 1018.67 1018.63 1018.59 1018.55 1018.51 1018.47 1018.35 1018.07 1017.91 1017.75 1017.67 1017.55 1017.51 1017.43 1017.43 1017.43 1017.35 1017.27 1017.23 1017.23 1017.19 1017.19 1017.27 1017.39 1017.71 1017.67 1017.51 1017.59 1017.79 1017.91 1017.99 1017.87 1016.99 1016.79 1016.67 1016.67 1015.91 1015.43 1015.15 1014.91 1014.79 1014.71 1014.51 1014.31 1014.11 1013.95 1013.71 1013.55 1013.31 1012.99 1012.79
1019.51 1019.43 1019.35 1019.15 1018.87 1018.71 1018.71 1018.71 1018.71 1018.67 1018.51 1018.39 1018.39 1018.43 1018.51 1018.59 1018.71 1018.79 1018.95 1019.11 1019.11 1019.11 1019.11 1019.03 1018.87 1018.75 1018.47 1018.31 1018.19 1017.91 1017.87 1017.67 1017.55 1017.55 1017.63 1017.63 1017.63 1017.55 1017.43 1017.39 1017.35 1017.35 1017.27 1017.23 1017.31 1017.35 1017.43 1017.59 1017.75 1017.55 1017.47 1017.59 1017.83 1017.75 1017.67 1017.71 1017.31 1017.03 1016.75 1016.51 1016.27 1015.59 1015.31 1015.11 1015.03 1014.91 1014.59 1014.27 1014.15 1014.07 1014.07 1013.87 1013.55 1013.19
1019.47 1019.23 1018.99 1018.75 1018.59 1018.55 1018.47 1018.47 1018.47 1018.43 1018.23 1018.23 1018.31 1018.35 1018.43 1018.51 1018.63 1018.79 1018.87 1018.83 1018.79 1018.67 1018.67 1018.59 1018.63 1018.51 1018.31 1018.15 1017.95 1017.91 1017.83 1017.87 1018.19 1018.11 1018.15 1018.15 1018.07 1017.99 1017.95 1017.91 1017.83 1017.59 1017.43 1017.43 1017.47 1017.43 1017.39 1017.43 1017.51 1017.55 1017.63 1017.63 1017.63 1017.75 1017.63 1017.67 1017.47 1017.15 1016.83 1016.79 1016.63 1015.75 1015.43 1015.43 1015.31 1015.07 1014.87 1014.75 1014.51 1014.27 1013.95 1013.75 1013.63 1013.39
1019.51 1019.23 1018.95 1018.75 1018.67 1018.51 1018.31 1018.27 1018.11 1018.07 1017.99 1018.11 1018.07 1018.07 1018.11 1018.23 1018.39 1018.51 1018.55 1018.59 1018.59 1018.59 1018.63 1018.59 1018.55 1018.43 1018.31 1018.07 1017.95 1018.15 1018.19 1018.35 1018.27 1018.07 1018.15 1018.31 1018.43 1018.31 1018.31 1018.35 1018.43 1018.23 1017.87 1017.63 1017.55 1017.47 1017.43 1017.43 1017.39 1017.47 1017.79 1017.79 1017.59 1017.55 1017.55 1017.43 1017.51 1017.39 1017.11 1016.83 1016.67 1017.03 1016.23 1015.71 1015.39 1015.19 1014.99 1014.87 1014.63 1014.39 1014.07 1013.71 1013.43 1013.15
1019.71 1019.43 1019.15 1018.75 1018.31 1018.27 1018.23 1018.11 1017.95 1017.91 1017.91 1017.95 1018.03 1018.11 1018.15 1018.23 1018.23 1018.27 1018.31 1018.47 1018.51 1018.55 1018.59 1018.63 1018.59 1018.59 1018.51 1018.55 1018.59 1018.47 1018.47 1018.51 1018.43 1018.27 1018.27 1018.35 1018.43 1018.39 1018.39 1018.59 1018.83 1018.75 1018.51 1018.19 1017.91 1017.71 1017.59 1017.59 1017.59 1017.51 1017.55 1017.71 1017.87 1017.63 1017.31 1017.31 1017.47 1017.43 1017.23 1016.87 1016.67 1016.47 1016.19 1015.99 1015.63 1015.31 1014.99 1014.91 1014.79 1014.67 1014.39 1014.11 1013.83 1013.47
1019.51 1019.07 1018.79 1018.79 1018.83 1018.71 1018.67 1018.55 1018.51 1018.43 1018.31 1018.35 1018.31 1018.35 1018.47 1018.55 1018.59 1018.71 1018.79 1018.99 1019.07 1019.03 1018.87 1018.95 1018.95 1018.99 1018.91 1018.87 1018.75 1018.67 1018.63 1018.63 1018.55 1018.43 1018.39 1018.43 1018.55 1018.63 1018.67 1019.03 1019.19 1019.15 1019.11 1018.87 1018.59 1018.31 1018.03 1017.91 1017.63 1017.59 1017.55 1017.51 1017.43 1017.51 1017.59 1017.67 1017.55 1017.43 1017.43 1017.07 1016.83 1016.67 1016.31 1015.95 1015.79 1015.55 1015.11 1014.95 1014.99 1014.83 1014.63 1014.27 1013.95 1013.67
1019.39 1019.59 1019.59 1019.39 1019.43 1019.23 1019.07 1019.03 1019.03 1018.99 1018.95 1018.95 1018.95 1018.99 1018.91 1018.87 1018.95 1019.03 1019.15 1019.27 1019.27 1019.11 1019.15 1019.15 1019.15 1019.19 1019.11 1019.11 1019.07 1019.03 1019.07 1018.95 1018.91 1018.91 1018.87 1018.99 1018.91 1019.07 1019.35 1019.43 1019.51 1019.35 1019.19 1019.19 1018.99 1018.83 1018.51 1018.27 1018.07 1017.87 1017.71 1017.67 1017.51 1017.39 1017.59 1017.79 1017.91 1017.67 1017.47 1017.23 1017.07 1016.95 1016.55 1016.23 1015.99 1015.75 1015.55 1015.47 1015.27 1014.95 1014.67 1014.39 1014.07 1013.79
1019.83 1019.83 1019.63 1019.51 1019.35 1019.23 1019.23 1019.35 1019.43 1019.39 1019.39 1019.43 1019.43 1019.51 1019.51 1019.47 1019.51 1019.55 1019.59 1019.63 1019.47 1019.39 1019.39 1019.39 1019.43 1019.43 1019.43 1019.51 1019.43 1019.43 1019.39 1019.35 1019.35 1019.23 1019.15 1019.15 1019.23 1019.47 1019.59 1019.67 1019.67 1019.55 1019.43 1019.31 1019.19 1018.95 1018.71 1018.59 1018.43 1018.39 1018.23 1018.15 1018.11 1017.75 1017.39 1017.47 1017.83 1017.55 1017.35 1017.23 1017.07 1016.95 1016.67 1016.35 1016.15 1015.87 1015.71 1015.47 1015.31 1015.23 1014.79 1014.39 1014.19 1013.83
1020.15 1020.19 1019.95 1019.75 1019.63 1019.55 1019.67 1019.75 1019.71 1019.71 1019.79 1019.83 1019.91 1019.91 1019.95 1020.07 1020.03 1020.03 1020.07 1019.95 1019.79 1019.75 1019.71 1019.75 1019.83 1019.83 1019.87 1019.83 1019.75 1019.71 1019.67 1019.63 1019.71 1019.71 1019.67 1019.67 1019.71 1019.75 1019.71 1019.75 1019.71 1019.67 1019.51 1019.43 1019.31 1019.07 1018.87 1018.79 1018.67 1018.67 1018.67 1018.55 1018.55 1018.55 1018.35 1017.55 1017.47 1017.55 1017.59 1017.35 1017.07 1016.91 1016.63 1016.39 1016.15 1015.95 1015.71 1015.55 1015.43 1015.35 1015.07 1014.63 1014.15 1013.75
1020.31 1020.23 1020.11 1020.11 1020.15 1020.07 1020.15 1020.15 1020.11 1020.11 1020.15 1020.19 1020.23 1020.19 1020.27 1020.35 1020.39 1020.31 1020.27 1020.03 1019.99 1020.11 1020.19 1020.15 1020.27 1020.27 1020.23 1020.19 1020.11 1020.07 1020.07 1020.07 1020.23 1020.19 1020.19 1020.15 1020.07 1020.03 1019.99 1019.95 1019.87 1019.83 1019.71 1019.59 1019.43 1019.27 1019.07 1019.07 1018.95 1018.95 1018.99 1018.91 1018.91 1018.87 1018.47 1017.91 1017.59 1017.39 1017.47 1017.51 1017.23 1016.99 1016.71 1016.43 1016.19 1015.95 1015.79 1015.63 1015.39 1015.27 1015.03 1014.63 1014.15 1013.71
1020.47 1020.43 1020.43 1020.51 1020.55 1020.55 1020.51 1020.51 1020.51 1020.51 1020.55 1020.51 1020.51 1020.51 1020.51 1020.55 1020.55 1020.51 1020.35 1020.27 1020.51 1020.59 1020.63 1020.75 1020.91 1020.91 1020.87 1020.71 1020.63 1020.71 1020.67 1020.63 1020.59 1020.67 1020.71 1020.63 1020.59 1020.59 1020.55 1020.47 1020.35 1020.31 1020.19 1019.99 1019.83 1019.71 1019.59 1019.59 1019.55 1019.55 1019.59 1019.75 1019.63 1019.23 1018.71 1017.95 1017.95 1017.59 1017.31 1017.31 1017.23 1016.91 1016.63 1016.43 1016.27 1016.07 1015.67 1015.43 1015.39 1014.95 1014.71 1014.51 1014.11 1013.67
1020.67 1020.71 1020.83 1020.91 1020.95 1020.91 1020.91 1020.95 1020.91 1020.99 1020.99 1020.95 1020.91 1020.91 1020.91 1020.87 1020.87 1020.87 1020.87 1021.07 1021.19 1021.27 1021.31 1021.39 1021.47 1021.47 1021.47 1021.39 1021.35 1021.39 1021.43 1021.35 1021.31 1021.39 1021.39 1021.35 1021.35 1021.35 1021.19 1021.03 1020.95 1020.87 1020.67 1020.47 1020.27 1020.15 1020.07 1020.11 1020.11 1020.03 1019.99 1020.03 1019.95 1019.59 1019.15 1018.59 1017.95 1017.63 1017.35 1017.15 1017.07 1016.99 1016.79 1016.67 1016.35 1016.03 1015.83 1015.35 1014.87 1014.67 1014.51 1014.23 1013.83 1013.39
1020.95 1020.99 1021.11 1021.19 1021.27 1021.27 1021.27 1021.31 1021.31 1021.31 1021.35 1021.35 1021.35 1021.39 1021.35 1021.43 1021.51 1021.59 1021.67 1021.79 1021.87 1021.91 1021.91 1021.99 1022.03 1021.95 1021.95 1021.95 1021.91 1021.87 1021.87 1021.91 1021.95 1021.95 1021.95 1021.95 1021.79 1021.71 1021.59 1021.47 1021.39 1021.35 1021.19 1020.99 1020.83 1020.71 1020.55 1020.51 1020.39 1020.19 1020.03 1019.87 1019.55 1019.11 1018.63 1018.27 1017.83 1017.55 1017.39 1017.19 1017.07 1017.03 1016.79 1016.63 1016.55 1016.27 1015.79 1015.47 1015.15 1014.79 1014.39 1014.03 1013.67 1013.15
1021.23 1021.35 1021.47 1021.47 1021.55 1021.55 1021.63 1021.63 1021.67 1021.63 1021.67 1021.67 1021.67 1021.71 1021.83 1021.91 1021.99 1022.11 1022.19 1022.27 1022.31 1022.35 1022.43 1022.55 1022.55 1022.55 1022.55 1022.47 1022.35 1022.27 1022.31 1022.31 1022.27 1022.19 1022.11 1022.15 1021.99 1021.87 1021.67 1021.59 1021.59 1021.43 1021.39 1021.27 1021.11 1020.99 1020.83 1020.67 1020.43 1020.23 1019.99 1019.63 1019.19 1018.67 1018.35 1018.23 1018.11 1017.79 1017.59 1017.31 1017.11 1016.91 1016.83 1016.79 1016.55 1016.27 1015.91 1015.43 1015.19 1014.83 1014.31 1013.87 1013.39 1012.91
1021.67 1021.75 1021.83 1021.79 1021.83 1021.87 1021.87 1021.91 1021.91 1021.91 1021.95 1021.99 1022.03 1022.15 1022.31 1022.39 1022.51 1022.59 1022.63 1022.67 1022.71 1022.83 1022.91 1022.99 1023.03 1022.99 1022.95 1022.87 1022.75 1022.67 1022.63 1022.67 1022.63 1022.51 1022.39 1022.31 1022.23 1022.07 1021.91 1021.79 1021.79 1021.63 1021.59 1021.55 1021.39 1021.19 1020.91 1020.75 1020.55 1020.31 1019.95 1019.59 1019.15 1019.07 1019.07 1018.83 1018.43 1017.91 1017.63 1017.31 1017.11 1016.99 1016.91 1016.67 1016.47 1016.23 1015.87 1015.51 1015.23 1014.87 1014.35 1013.75 1013.47 1013.23
1022.11 1022.19 1022.23 1022.19 1022.15 1022.15 1022.15 1022.19 1022.19 1022.19 1022.23 1022.27 1022.39 1022.51 1022.67 1022.87 1022.95 1022.99 1023.07 1023.15 1023.19 1023.27 1023.39 1023.43 1023.39 1023.35 1023.27 1023.19 1023.07 1022.95 1022.87 1022.83 1022.79 1022.71 1022.55 1022.39 1022.27 1022.19 1022.03 1021.91 1021.79 1021.75 1021.71 1021.59 1021.39 1021.23 1021.07 1020.91 1020.67 1020.39 1020.11 1019.83 1019.55 1019.43 1019.31 1018.87 1018.51 1018.11 1017.71 1017.51 1017.19 1016.87 1016.67 1016.47 1016.23 1015.95 1015.67 1015.35 1015.11 1014.91 1014.83 1014.71 1014.55 1014.11
1022.55 1022.55 1022.55 1022.51 1022.51 1022.47 1022.47 1022.43 1022.43 1022.47 1022.51 1022.59 1022.75 1022.87 1023.03 1023.19 1023.39 1023.47 1023.51 1023.59 1023.63 1023.71 1023.75 1023.75 1023.71 1023.59 1023.47 1023.35 1023.27 1023.11 1022.95 1022.87 1022.83 1022.75 1022.59 1022.43 1022.27 1022.15 1022.03 1021.95 1021.83 1021.83 1021.75 1021.63 1021.51 1021.35 1021.19 1021.03 1020.83 1020.55 1020.31 1020.07 1019.75 1019.55 1019.27 1018.87 1018.55 1018.27 1017.95 1017.55 1017.11 1016.83 1016.47 1016.15 1015.91 1015.71 1015.47 1015.31 1015.07 1014.91 1014.71 1014.51 1014.35 1014.11
1022.83 1022.83 1022.79 1022.75 1022.71 1022.71 1022.67 1022.63 1022.63 1022.71 1022.75 1022.91 1023.07 1023.23 1023.39 1023.51 1023.67 1023.79 1023.87 1023.91 1023.99 1023.99 1023.95 1023.91 1023.87 1023.75 1023.59 1023.43 1023.39 1023.39 1023.15 1022.99 1022.95 1022.87 1022.67 1022.55 1022.39 1022.27 1022.11 1021.99 1021.91 1021.83 1021.75 1021.63 1021.55 1021.39 1021.19 1021.07 1020.79 1020.51 1020.31 1020.07 1019.79 1019.59 1019.27 1018.95 1018.59 1018.23 1017.87 1017.59 1017.19 1016.83 1016.47 1016.07 1015.79 1015.63 1015.55 1015.35 1015.07 1014.79 1014.51 1014.23 1013.95 1013.63
Wind_Speed
2 3 2 3 4 4 3 3 4 4 3 4 2 2 2 2 0 2 3 3 1 3 2 2 3 4 6 7 6 6 6 7 8 5 6 5 5 8 12 12 11 11 11 11 10 11 11 10 10 11 12 12 5 2 2 3 3 3 3 5 8 8 7 7 6 6 5 5 2 1 2 7 9 10
2 2 3 2 4 3 4 5 4 3 3 2 2 2 2 4 3 3 1 4 2 3 3 1 2 5 7 6 6 4 5 8 8 4 5 6 5 10 12 12 11 11 12 12 11 11 11 11 10 11 11 12 9 3 3 4 4 4 4 6 8 9 8 7 7 7 6 6 4 2 1 4 11 10
2 3 4 3 2 2 4 3 2 3 3 4 4 3 2 2 3 3 2 1 4 1 2 3 3 3 5 6 5 5 5 7 7 5 6 6 10 12 9 12 12 12 12 12 11 12 12 11 11 11 10 11 12 7 3 5 5 6 6 8 9 9 8 8 8 8 8 7 6 4 3 3 9 11
2 2 4 3 2 1 2 3 3 3 3 3 4 4 3 2 3 3 3 2 6 2 2 5 6 7 5 7 5 6 6 8 9 6 7 8 10 8 7 11 13 12 13 12 13 12 13 13 12 11 10 11 12 9 4 6 7 7 7 8 9 10 9 9 9 9 8 8 8 7 5 6 3 4
2 2 3 3 3 2 1 2 1 1 2 1 2 2 2 2 2 3 3 3 5 4 2 3 4 6 4 5 3 6 7 8 8 9 7 7 6 6 7 7 11 13 13 11 12 14 14 13 11 10 10 11 12 11 7 6 8 8 8 8 10 11 11 10 9 10 10 9 9 9 8 7 6 5
3 3 3 3 4 3 2 2 0 1 2 2 2 3 3 4 4 4 4 4 2 5 4 5 5 4 2 4 5 5 8 8 7 8 8 7 5 6 6 7 7 13 13 12 13 14 14 12 11 11 12 12 12 11 8 8 8 9 9 9 10 11 11 11 10 10 10 10 10 10 9 8 7 7
3 3 3 4 3 3 3 3 3 2 2 2 1 2 2 4 3 3 5 3 3 5 5 3 3 3 4 3 6 7 5 5 4 5 6 6 6 5 6 6 6 11 14 13 13 13 13 12 13 14 14 13 12 11 8 8 8 9 9 9 10 11 12 12 11 10 10 10 10 10 11 10 9 9
4 4 4 5 4 2 3 4 2 2 1 2 2 3 3 3 4 2 2 4 4 3 3 3 3 3 4 4 4 4 5 5 5 3 4 5 6 6 6 7 7 9 14 13 12 13 12 13 14 15 15 15 15 12 8 8 8 8 9 10 10 11 12 12 12 12 11 11 11 10 10 11 10 10
3 3 3 2 2 2 1 2 3 5 7 5 3 3 5 3 3 1 2 3 3 3 4 4 3 2 2 2 4 3 5 5 4 5 6 5 5 6 6 7 7 11 13 12 12 12 12 14 14 15 15 15 15 14 10 8 8 8 8 10 10 11 12 12 13 12 12 11 11 11 10 10 11 10
2 1 1 2 2 1 1 0 2 2 5 7 5 5 4 3 2 2 3 2 2 3 4 3 4 2 4 4 3 3 4 3 5 6 6 4 5 6 8 8 7 7 6 7 7 8 10 13 14 14 15 15 15 14 14 11 9 7 8 10 10 10 11 12 12 12 12 12 11 11 11 11 10 10
2 0 0 1 2 3 2 3 3 3 4 5 6 5 5 5 3 3 3 3 2 1 1 2 2 3 3 1 4 4 3 0 1 4 8 8 4 3 4 8 8 6 7 8 9 9 9 11 9 11 14 15 15 15 15 13 11 4 5 9 10 10 10 11 12 12 12 12 12 12 11 11 11 11
5 4 4 3 3 4 5 5 5 5 5 4 5 5 5 5 4 5 4 0 1 3 3 1 3 2 2 5 3 3 4 5 4 3 2 7 9 9 6 4 6 6 5 7 9 9 10 11 12 13 12 14 16 15 14 17 16 11 2 6 8 8 9 10 11 12 12 12 12 12 12 11 11 11
3 3 4 3 4 4 7 8 7 7 6 4 5 4 2 3 3 2 1 0 0 2 1 4 2 3 5 5 4 6 3 4 5 4 3 3 5 7 8 9 4 3 4 6 8 8 7 8 8 7 7 8 11 11 12 11 14 14 6 5 7 7 8 9 10 11 12 12 12 12 12 12 12 11
4 6 5 4 9 10 9 8 8 6 3 3 3 4 4 4 3 2 2 1 1 1 3 4 3 5 6 5 4 3 3 4 3 4 5 6 6 6 6 7 2 4 3 7 8 9 6 6 7 7 7 8 8 6 7 8 11 14 13 6 6 7 8 8 9 10 11 11 12 12 12 12 12 12
3 3 3 3 5 5 5 3 4 5 5 5 4 3 4 4 3 3 3 2 2 2 2 3 2 3 5 5 3 4 5 4 3 3 3 5 5 5 7 7 9 0 6 5 6 8 6 5 6 6 6 7 8 7 7 13 16 15 13 9 5 6 7 7 8 9 10 11 11 12 12 12 12 13
5 5 5 4 2 0 2 1 2 5 7 6 6 5 2 2 4 5 4 3 2 2 3 3 3 2 4 4 3 4 3 4 3 3 3 3 3 5 4 5 6 7 4 5 5 7 5 5 6 6 7 7 6 7 10 13 15 16 16 12 7 5 6 7 8 8 8 9 10 11 12 12 12 13
6 5 4 3 1 1 2 2 1 2 4 6 5 2 4 5 5 6 6 5 4 3 2 3 4 3 2 3 3 2 2 2 4 4 4 3 3 2 4 4 4 9 6 5 3 4 5 5 6 7 7 7 6 7 9 12 12 13 14 14 13 9 6 7 7 7 7 8 9 10 11 12 13 13
4 4 4 4 2 1 2 2 2 2 3 3 3 3 2 2 3 4 6 7 6 4 3 3 3 3 2 4 4 5 3 4 5 5 6 3 3 4 5 5 5 7 5 3 2 4 6 5 6 7 8 7 7 6 9 11 11 15 16 15 14 13 10 8 6 7 8 8 8 9 10 11 12 13
3 3 3 2 2 2 2 1 1 1 1 2 3 2 2 2 2 3 4 1 1 2 2 3 3 5 4 4 5 5 4 4 5 4 5 4 3 4 4 3 3 6 3 2 3 5 6 4 6 7 7 9 7 5 8 14 15 16 15 15 15 15 14 12 9 8 8 9 9 10 10 11 12 12
2 2 2 2 3 2 1 2 4 3 2 1 1 2 2 3 3 3 4 4 4 1 2 2 2 2 4 6 6 7 6 6 4 2 2 1 2 1 2 4 5 3 5 5 7 4 5 4 4 6 6 6 7 6 6 13 14 13 14 18 17 16 15 14 12 10 9 8 10 10 11 10 10 11
2 2 2 3 4 2 1 2 4 5 2 2 2 1 1 1 1 2 4 5 4 4 2 2 3 6 8 9 9 10 9 4 2 1 3 4 0 4 5 3 4 5 3 5 7 3 5 5 3 6 6 6 6 5 6 7 11 14 17 16 16 16 17 17 16 13 10 10 9 10 10 9 9 10
3 3 9 6 4 3 1 2 4 6 3 2 1 1 0 1 0 1 3 3 3 4 4 2 5 6 8 8 9 9 9 6 3 4 5 1 2 4 3 2 2 5 3 4 6 4 3 5 3 4 5 4 4 2 4 6 7 8 9 12 13 13 15 16 16 16 16 14 12 10 9 7 7 4
5 4 4 6 3 3 2 4 5 6 5 2 2 1 0 0 0 0 2 3 5 6 7 6 8 7 8 6 5 5 7 4 0 1 1 1 4 4 3 3 2 4 4 4 4 5 5 5 6 4 4 2 4 2 5 6 6 4 5 7 7 11 13 15 15 15 16 16 16 14 9 5 5 2
4 4 3 4 4 4 2 1 2 3 4 1 1 1 0 0 2 1 2 2 2 2 3 4 4 4 4 5 4 3 3 3 2 3 2 2 4 5 4 3 3 1 2 3 4 4 3 2 5 6 3 3 4 5 4 6 6 4 6 7 7 10 11 11 12 15 16 17 19 19 13 4 3 0
6 4 3 1 1 1 2 2 4 5 4 3 1 1 2 2 0 1 2 2 3 2 2 3 3 4 4 4 3 3 3 3 4 3 3 2 3 5 5 4 4 2 2 4 4 3 2 2 4 5 5 2 3 5 4 4 5 6 8 7 8 9 8 9 7 8 12 16 17 18 14 8 3 3
6 5 3 1 2 4 6 7 6 6 6 5 2 5 7 5 3 3 2 2 2 2 2 3 3 4 4 5 3 2 2 3 3 3 3 2 3 3 4 5 4 4 4 6 7 3 3 4 5 5 5 5 4 4 6 5 4 7 7 8 7 7 7 7 8 8 9 9 9 11 9 9 2 5
4 4 3 2 8 10 9 9 9 9 8 5 5 9 7 7 5 5 4 3 2 2 1 1 2 3 2 3 2 2 3 4 3 4 3 3 3 3 3 4 3 2 3 5 3 3 3 4 5 6 5 4 5 6 5 6 7 8 9 9 8 7 6 6 8 7 8 9 8 14 12 8 8 4
3 2 2 3 8 10 10 11 11 10 8 7 10 8 9 7 6 3 2 2 2 1 1 1 1 2 3 3 2 1 1 1 2 1 2 3 3 3 3 4 4 4 5 5 5 5 5 6 6 4 3 5 6 6 7 4 4 5 7 8 7 7 7 9 9 9 8 7 8 8 8 10 9 9
2 2 6 8 8 8 10 11 11 9 10 11 10 11 9 6 2 2 0 1 1 2 3 3 3 3 4 4 2 2 3 1 2 1 2 3 3 3 2 3 4 4 4 5 6 5 5 5 4 4 6 5 6 5 5 5 4 6 6 7 8 8 7 8 8 9 9 9 8 7 6 7 8 7
6 6 7 7 7 8 8 6 4 5 5 5 6 7 5 1 1 1 1 2 2 2 1 1 2 3 3 2 2 1 1 6 6 3 3 4 5 5 5 5 6 5 4 4 5 4 5 5 4 5 6 6 5 5 4 5 5 5 5 6 7 5 4 8 8 8 8 9 9 9 8 7 7 5
5 5 4 5 6 6 10 10 10 8 6 2 2 3 3 3 3 2 3 4 2 1 1 1 2 2 3 2 5 7 6 6 5 2 1 2 2 3 2 4 4 5 6 5 4 4 3 4 5 5 6 5 5 5 5 2 3 5 6 6 6 6 7 7 8 8 7 7 7 7 7 8 8 8
5 4 5 4 4 5 4 3 3 4 4 4 4 5 5 4 2 2 3 3 3 3 2 2 3 4 5 6 5 5 6 5 4 3 3 2 3 2 2 3 3 3 5 6 6 6 6 5 6 6 5 4 5 6 4 3 5 6 7 7 6 5 6 9 9 9 8 7 7 7 7 7 7 8
2 4 6 7 6 6 5 5 5 5 6 6 6 7 6 6 6 6 6 6 5 4 5 6 6 5 5 5 4 4 5 4 4 4 5 4 4 3 5 6 5 4 5 6 6 8 7 7 6 6 6 5 6 4 4 6 7 7 8 9 7 7 8 8 8 9 10 9 8 7 7 6 7 6
4 4 4 4 3 3 3 5 5 5 5 6 7 7 7 7 7 6 6 5 4 4 5 5 6 6 5 6 5 5 5 5 6 6 6 6 5 7 6 6 6 5 5 6 6 6 6 6 5 6 5 5 5 4 3 6 7 6 7 6 6 7 7 8 7 8 8 7 8 10 8 7 5 6
5 4 4 4 4 4 5 6 6 5 6 6 6 6 6 6 6 6 6 5 5 6 6 6 6 6 6 6 6 6 6 6 6 7 7 6 7 7 6 6 6 6 5 6 6 5 5 5 6 5 4 4 4 4 4 7 6 7 6 5 6 7 7 6 7 7 6 6 7 9 10 8 7 6
5 4 4 5 5 5 6 6 6 6 6 6 6 5 6 6 5 6 6 4 5 6 7 7 7 7 7 6 6 6 6 6 7 7 7 7 6 6 5 5 4 5 5 5 6 5 5 5 6 7 8 7 7 6 3 4 5 5 7 8 8 7 7 7 7 6 7 8 7 7 9 11 10 8
5 5 5 6 6 6 6 6 6 6 6 5 5 6 6 6 5 5 4 4 8 7 7 7 8 7 7 7 6 7 7 7 7 7 7 6 6 6 7 6 6 6 6 7 6 7 7 8 8 9 9 9 9 9 8 2 7 7 4 7 6 6 7 7 8 8 6 6 8 7 8 10 10 9
5 5 6 6 6 6 6 6 6 6 6 6 6 6 6 6 6 6 6 9 9 8 8 9 8 8 8 8 8 7 7 7 7 8 7 7 8 8 7 6 6 7 6 6 6 7 7 7 8 8 8 8 8 9 11 7 5 5 6 5 7 8 7 8 8 8 9 7 8 8 7 8 9 10
6 6 6 6 6 6 7 6 6 6 6 7 7 6 6 7 7 7 8 9 8 8 8 9 8 8 8 8 7 7 7 8 8 8 8 8 7 7 7 7 6 7 6 6 6 6 7 8 8 7 7 7 7 8 8 10 9 6 6 8 5 7 7 8 9 8 9 11 10 8 6 6 10 13
6 6 6 6 6 6 6 6 6 6 6 6 6 6 7 7 7 8 8 8 8 8 8 8 8 8 8 8 7 6 7 7 7 6 6 6 5 5 5 5 5 5 5 5 6 6 6 7 7 7 7 6 7 8 8 8 7 5 5 6 8 8 8 7 8 9 10 8 9 9 10 9 10 8
6 7 6 5 5 5 6 6 5 6 6 6 6 7 7 7 8 7 7 7 7 7 7 7 7 7 7 6 7 6 6 6 5 6 6 5 5 5 6 6 4 5 6 6 6 6 6 6 9 16 11 7 8 7 5 6 7 6 6 5 7 9 11 11 11 10 10 10 9 11 12 11 11 10
6 6 5 5 6 5 5 6 5 6 6 6 6 7 7 7 7 10 8 9 7 7 6 7 6 6 6 5 5 5 5 5 5 5 5 5 5 5 5 4 4 5 5 6 6 6 5 6 10 9 8 8 7 7 7 7 9 9 7 6 5 6 9 12 13 12 11 10 10 10 10 10 9 10
6 6 6 5 5 5 5 5 5 5 5 6 6 6 7 7 6 7 6 7 6 6 6 6 5 5 5 5 5 4 4 4 4 4 4 4 4 5 5 4 4 4 5 5 5 5 6 7 8 8 7 6 6 6 8 8 8 8 8 8 8 7 6 8 11 12 14 15 14 12 9 8 9 11
6 6 6 5 5 5 5 5 5 5 6 6 6 6 6 6 7 6 6 6 6 6 5 5 5 5 4 4 4 4 4 5 5 5 5 5 5 5 5 4 4 4 5 5 6 5 6 6 7 7 7 6 6 7 8 8 8 8 9 8 8 8 10 8 6 7 8 9 11 11 14 13 11 12
5 6 5 5 5 5 5 5 5 5 5 6 6 6 6 6 6 6 6 6 6 5 5 5 5 5 5 5 6 6 5 6 5 5 5 5 5 5 5 5 5 5 5 6 6 6 6 6 6 5 5 5 6 6 7 8 9 9 8 9 10 9 9 9 9 8 6 6 8 13 14 14 15 17
Wind_Direction
320 330 328 213 226 224 211 223 221 211 209 208 198 179 185 158 217 303 326 288 286 301 348 357 297 334 331 326 319 320 314 311 317 313 303 296 294 298 308 317 325 330 336 338 340 336 334 326 310 299 296 299 323 149 220 260 275 257 238 187 167 162 160 160 164 165 161 141 128 94 72 168 168 169
317 321 312 172 228 221 203 228 228 207 219 246 231 239 201 160 198 194 291 288 232 270 308 240 284 323 319 317 317 315 311 312 319 309 304 309 301 303 310 316 321 332 337 341 347 341 343 336 324 314 308 305 309 305 209 243 238 228 227 200 177 169 165 162 171 173 173 161 162 170 201 191 184 179
318 310 307 320 294 197 215 242 254 217 201 219 220 213 169 191 176 165 147 332 286 194 289 292 282 290 297 303 306 306 314 317 323 323 329 325 314 314 315 315 314 327 331 335 348 344 342 343 337 332 322 313 310 315 240 222 223 216 211 206 186 173 170 167 175 180 179 177 173 182 212 187 190 192
311 315 309 305 284 276 238 234 248 247 235 211 215 200 182 175 172 149 153 201 270 251 240 283 291 292 290 301 303 319 323 323 332 336 327 319 318 321 325 326 323 324 322 340 345 341 342 349 345 338 331 321 314 316 259 221 222 210 204 204 189 180 177 178 177 183 183 184 183 185 194 184 167 161
286 281 278 281 289 234 269 299 332 253 200 221 250 212 179 221 188 169 176 215 275 295 250 252 279 301 313 304 315 329 326 328 331 330 322 328 332 329 337 333 328 330 338 342 335 339 346 348 344 342 333 323 315 315 308 269 227 211 203 201 189 184 179 184 183 182 186 186 190 190 194 197 189 189
280 277 263 286 291 266 267 292 232 199 215 192 246 255 214 230 225 191 182 219 226 282 314 313 298 288 302 314 317 333 332 322 329 329 329 335 343 347 342 341 334 347 349 342 339 338 346 346 348 349 336 325 318 319 314 290 245 219 204 199 190 186 184 184 190 185 185 188 191 194 196 200 204 198
275 278 252 259 270 285 290 278 237 210 229 237 218 278 224 223 233 203 194 176 231 262 279 261 295 301 322 315 306 325 324 313 316 323 337 343 345 352 346 344 342 343 336 333 334 336 343 344 343 339 332 328 330 333 318 294 266 229 204 197 191 190 187 187 190 193 189 192 193 193 196 200 208 210
251 250 268 262 260 322 318 305 312 271 229 261 272 289 263 220 239 235 189 208 213 232 271 294 293 291 320 300 308 318 323 338 336 340 328 352 355 342 345 344 341 335 330 327 331 334 337 336 336 334 331 331 330 334 324 292 271 243 209 195 195 191 190 188 191 194 196 195 197 195 196 200 205 212
268 282 270 317 38 60 40 38 21 319 314 296 291 266 257 252 265 276 194 223 213 239 274 285 279 291 293 263 304 339 359 333 342 351 359 338 323 337 344 345 337 333 333 332 333 329 329 330 332 329 327 328 328 329 331 311 282 252 213 193 195 194 191 191 192 194 196 200 199 201 201 200 204 208
86 70 89 139 208 122 158 171 226 262 260 247 253 259 268 257 248 285 293 279 240 221 241 239 298 336 330 333 317 311 11 351 352 347 333 335 351 351 343 341 336 337 336 336 332 330 330 330 328 327 329 330 330 329 330 329 312 267 219 193 192 197 193 192 194 196 197 198 202 205 206 204 204 207
53 321 297 253 214 207 188 197 208 221 249 259 254 245 245 244 240 256 256 208 186 191 310 303 288 312 301 330 308 318 1 332 47 348 344 340 328 335 345 330 332 334 331 323 316 323 318 319 324 329 333 335 339 345 351 359 359 324 226 197 193 196 196 194 196 198 200 201 201 205 210 209 208 208
212 201 220 231 230 219 211 195 213 202 222 231 255 250 230 211 186 206 205 226 17 354 356 316 309 310 291 332 293 300 353 357 348 10 353 328 330 334 336 321 321 320 334 338 339 338 344 345 342 346 346 344 346 354 2 7 7 4 277 212 201 196 199 198 198 199 202 205 206 207 208 212 213 212
217 232 223 213 234 242 242 238 238 232 224 225 253 280 254 215 185 168 121 110 39 358 7 303 293 313 318 304 327 329 343 342 311 300 348 306 315 320 329 329 318 296 332 336 336 336 348 339 338 342 345 346 349 352 0 360 355 346 326 231 220 209 201 201 200 200 202 206 210 211 212 213 214 217
209 208 221 228 230 229 238 252 262 256 266 238 205 220 219 209 179 174 184 213 176 241 287 274 283 310 300 300 309 301 284 288 298 328 337 330 321 327 323 310 311 310 5 352 343 327 336 345 334 349 349 345 350 344 354 347 345 338 326 287 236 227 218 207 205 204 204 206 210 213 215 216 216 218
228 229 231 234 250 259 284 311 317 288 292 308 312 312 248 228 186 174 194 224 194 203 229 253 265 261 284 290 284 282 287 288 297 293 319 314 326 338 340 334 324 321 23 344 338 320 327 356 350 337 341 340 342 345 345 347 353 358 351 327 281 248 239 227 217 211 208 207 210 214 217 218 218 219
194 203 220 226 222 95 231 205 330 327 321 318 300 273 261 259 239 196 179 200 199 199 226 270 261 239 266 274 295 286 287 294 311 314 317 304 305 318 327 315 314 299 352 344 331 311 312 356 351 342 338 337 334 337 340 356 358 7 10 10 341 281 258 250 241 228 217 214 214 215 218 220 221 221
192 194 204 219 164 321 46 63 357 336 329 332 339 270 235 233 231 235 246 232 213 173 188 222 272 230 232 278 272 242 288 326 315 312 318 298 304 286 301 289 301 311 336 344 326 311 319 354 351 341 330 333 333 336 347 354 5 5 12 12 6 347 305 276 267 262 248 229 224 222 221 222 223 223
188 191 192 200 188 106 56 37 19 340 333 330 334 350 346 323 306 296 261 247 239 209 206 192 223 260 177 249 274 291 306 312 297 303 293 297 304 308 288 288 286 287 328 317 309 327 330 350 349 341 329 334 334 339 332 351 7 11 11 11 7 2 348 329 306 278 266 257 241 232 230 228 227 226
186 191 189 171 153 108 79 49 358 323 314 331 340 352 357 345 339 360 359 328 173 204 203 199 222 264 271 266 276 285 291 264 260 244 255 270 260 270 285 290 272 298 313 349 39 347 321 334 353 332 328 329 328 338 332 357 10 9 9 11 13 10 6 356 335 302 282 271 261 247 237 232 232 232
201 200 170 132 117 110 79 20 353 333 282 283 24 29 4 13 29 27 17 27 43 78 174 194 233 268 291 295 286 285 290 294 276 274 273 284 261 296 344 348 319 316 329 22 17 344 323 318 346 318 317 322 321 335 352 346 4 8 9 14 14 15 12 7 356 340 314 286 272 264 252 242 236 237
163 162 140 128 130 140 153 17 356 342 359 95 73 64 17 359 61 2 340 8 34 25 15 302 270 279 286 299 307 307 306 297 261 158 65 23 330 59 15 324 345 313 352 8 8 340 322 329 334 318 316 318 305 323 342 347 353 6 16 8 0 2 359 356 354 350 339 316 295 277 265 248 236 236
95 177 160 141 140 144 148 11 5 3 19 82 83 68 53 3 19 326 346 344 345 342 327 338 332 320 327 339 338 333 348 29 135 107 67 269 61 43 42 345 305 299 2 19 2 7 308 314 328 332 303 321 294 324 342 347 346 2 7 358 353 351 349 345 343 342 342 339 325 304 279 252 225 218
91 60 102 123 115 106 69 27 15 15 22 66 27 26 69 77 308 4 19 350 345 355 355 347 352 347 348 349 337 327 341 18 158 123 116 96 82 67 49 33 350 360 335 341 22 11 312 349 330 4 340 353 293 336 338 342 335 347 353 351 345 341 342 337 334 337 340 340 337 331 312 261 188 214
107 92 73 54 60 86 106 46 5 17 13 25 359 51 10 6 263 58 13 329 352 346 322 305 316 310 320 327 329 335 349 349 9 12 25 59 102 93 90 70 68 70 280 303 21 10 280 359 330 350 10 329 329 325 344 332 331 336 351 351 354 343 341 340 340 341 347 351 358 2 356 341 158 326
138 122 101 67 114 24 356 330 318 302 301 305 278 250 234 238 84 14 334 306 334 306 301 314 316 318 347 329 329 330 344 346 345 355 10 50 115 104 92 70 43 356 278 293 7 19 324 314 329 341 345 348 303 328 318 323 326 354 349 356 349 343 347 346 349 352 357 0 4 11 19 21 192 218
105 108 95 102 60 355 333 317 296 275 256 246 247 239 233 261 312 291 274 279 284 288 305 319 325 332 3 329 330 345 343 336 341 350 14 51 88 93 111 92 52 14 318 323 7 10 349 342 0 351 345 1 322 338 333 339 322 344 345 349 351 344 355 353 0 4 3 359 359 1 2 21 31 231
73 64 50 341 345 333 323 315 306 299 290 272 242 251 259 255 246 252 236 234 241 266 292 318 316 329 336 315 308 340 337 330 343 6 9 37 59 53 37 31 49 8 299 321 357 11 25 7 4 30 1 349 350 343 1 350 336 345 351 349 346 348 1 13 11 3 359 352 350 348 353 0 5 340
39 38 1 311 308 308 305 301 295 289 285 266 270 270 266 263 244 225 226 237 258 265 262 286 301 307 298 267 274 267 255 278 323 346 40 49 45 67 38 21 9 4 354 352 7 33 46 43 17 13 35 24 9 356 335 320 324 348 346 332 339 347 4 8 360 355 354 353 353 352 354 350 342 345
25 286 276 285 299 305 296 286 284 280 270 260 257 259 259 260 205 185 102 45 25 357 337 333 316 296 280 250 234 257 253 261 37 31 10 25 29 9 32 33 19 9 359 5 17 23 44 51 26 359 16 15 10 332 341 317 327 336 343 350 355 337 356 0 358 351 346 348 349 350 347 333 330 332
327 315 307 310 318 312 296 288 263 250 253 254 258 261 250 214 191 123 137 186 185 203 218 257 298 287 279 287 284 271 323 38 15 7 32 25 11 11 18 25 1 344 354 7 19 22 31 29 22 16 11 357 349 328 332 344 336 328 348 358 330 300 0 355 349 341 347 344 340 338 331 331 311 321
334 323 322 305 285 272 277 268 257 256 267 272 241 244 236 214 195 177 181 189 191 221 224 263 282 331 333 357 38 30 38 42 26 38 97 79 6 8 357 61 9 347 338 352 11 16 24 14 13 26 17 346 340 346 331 355 350 345 344 339 355 354 324 334 339 340 339 335 332 327 332 337 337 339
304 303 283 283 17 349 352 2 55 66 77 89 83 69 62 62 74 102 135 88 47 32 53 52 44 47 36 47 34 43 47 43 29 11 38 43 15 22 14 49 1 331 341 348 354 348 359 2 3 11 21 12 355 334 343 23 16 354 347 345 341 322 335 341 334 332 334 335 332 337 327 325 325 328
300 9 16 17 1 8 3 27 41 48 61 62 56 59 56 56 58 58 55 59 53 48 60 55 54 47 46 41 30 40 40 22 12 3 25 35 29 15 39 49 23 9 5 357 352 356 356 360 1 15 10 7 359 4 12 6 2 4 352 336 341 342 335 332 333 330 332 337 335 329 329 317 317 316
40 10 357 11 350 349 8 43 43 46 57 64 59 48 50 51 52 50 49 50 38 44 56 50 47 35 33 33 19 23 21 4 16 21 36 31 29 49 38 47 30 16 25 15 12 8 351 359 3 2 6 6 347 353 52 30 357 346 334 320 332 330 326 328 333 335 337 334 330 334 334 335 319 328
31 14 17 6 11 19 40 54 52 56 58 58 63 60 53 48 46 41 41 25 28 43 48 45 46 39 40 36 26 31 28 39 38 38 35 42 41 47 40 43 26 19 14 13 11 358 355 1 4 8 5 8 360 328 346 35 347 335 327 326 327 326 329 334 337 335 335 332 346 332 323 319 323 321
24 12 13 21 30 46 61 56 58 58 61 55 57 58 61 52 44 45 41 17 49 50 49 48 43 40 37 36 35 37 36 44 46 35 34 30 31 29 33 34 22 13 7 13 358 352 354 10 11 11 1 354 355 342 330 348 348 323 333 332 334 334 332 335 336 336 338 342 341 331 323 322 323 326
34 26 37 52 49 52 61 55 57 57 55 55 54 56 61 59 46 49 37 44 59 53 51 52 46 36 34 28 35 38 36 40 41 33 33 23 28 26 24 15 15 8 9 2 356 0 5 12 11 10 1 353 353 336 326 330 321 307 1 328 326 327 329 332 335 332 332 331 325 327 317 315 316 323
54 44 58 55 54 53 58 53 53 50 44 43 45 48 52 52 48 44 41 50 47 48 44 48 44 39 34 29 35 34 34 34 36 35 28 24 23 24 19 12 14 13 359 356 3 6 7 17 13 10 4 352 334 332 325 332 341 322 334 343 329 328 332 334 330 329 326 329 318 315 313 312 317 320
60 62 60 60 53 56 59 53 54 54 48 48 46 44 49 48 45 43 47 50 47 48 47 46 42 39 37 35 37 37 36 32 34 30 26 25 23 20 14 11 12 8 359 2 4 6 11 13 4 360 355 342 330 316 311 312 313 318 312 316 331 334 333 327 322 327 330 324 321 314 299 286 287 287
63 64 61 62 60 58 62 57 56 52 53 49 51 45 48 54 52 50 49 48 50 47 49 48 41 39 38 33 33 36 42 42 36 32 29 19 15 15 12 9 5 355 354 354 355 358 359 359 348 343 334 320 301 295 289 283 283 302 316 321 332 327 317 331 333 329 319 315 311 315 316 318 313 316
69 64 57 63 66 61 65 61 59 59 57 52 54 57 55 57 59 55 55 52 51 50 50 44 41 40 36 29 28 29 35 29 28 21 18 10 6 3 360 0 357 356 353 344 346 345 349 340 342 342 334 317 305 298 308 318 318 323 321 317 307 320 345 348 329 324 317 322 323 320 317 320 318 319
62 67 58 55 59 59 60 63 57 60 58 55 61 65 64 60 62 63 60 54 53 55 52 45 37 37 34 27 23 24 31 24 15 11 4 360 352 351 350 355 354 348 353 343 342 334 333 348 344 336 328 326 330 338 328 323 317 320 319 321 325 340 328 314 310 307 307 313 316 313 310 313 321 323
60 60 56 49 55 56 56 58 55 55 56 57 64 69 72 66 56 53 52 53 49 54 48 43 32 32 28 22 18 14 20 20 12 358 352 349 349 342 343 341 348 349 344 330 330 333 338 343 336 333 326 326 329 330 316 317 315 315 323 326 322 317 306 298 292 290 291 291 290 289 298 310 327 325
54 57 53 49 54 53 53 53 56 53 58 65 71 71 69 69 62 54 53 54 53 46 43 38 29 21 17 15 13 8 11 14 5 354 345 344 338 333 328 328 339 335 332 325 325 329 334 332 326 321 323 328 328 322 318 319 320 322 316 312 310 316 318 318 306 291 289 288 299 317 326 320 304 295
55 54 51 44 46 47 45 44 46 51 64 71 72 71 70 68 68 61 55 53 50 41 35 31 22 13 6 10 11 4 354 356 351 337 333 331 328 328 325 327 330 329 329 328 326 324 329 323 314 310 308 316 312 308 309 316 315 314 312 314 317 318 318 322 325 330 338 328 319 315 310 309 312 312